This is the latest recevied weather packets stored in our database for station/object K3HW. If no packets are shown the sender has not sent any weather packets the latest 10 day(s).
| Time | Temp. | Humidity | Pressure | Rain* | Wind** | Luminosity | Snow |
|---|---|---|---|---|---|---|---|
| 1777911148 | 21.11° C | 39% | 1016.2 hPa | 0 mm | - | 742 W/m² | - |
| 1777910845 | 21.11° C | 37% | 1016.1 hPa | 0 mm | - | 739 W/m² | - |
| 1777910542 | 20.56° C | 37% | 1016.4 hPa | 0 mm | - | 737 W/m² | - |
| 1777910239 | 20.56° C | 37% | 1016.3 hPa | 0 mm | - | 726 W/m² | - |
| 1777909936 | 20.56° C | 38% | 1016.6 hPa | 0 mm | - | 726 W/m² | - |
| 1777909633 | 20° C | 38% | 1016.4 hPa | 0 mm | - | 724 W/m² | - |
| 1777909330 | 20° C | 37% | 1016.5 hPa | 0 mm | - | 714 W/m² | - |
| 1777909028 | 20° C | 39% | 1016.6 hPa | 0 mm | - | 712 W/m² | - |
| 1777908725 | 20° C | 40% | 1016.6 hPa | 0 mm | - | 698 W/m² | - |
| 1777908422 | 20° C | 40% | 1016.6 hPa | 0 mm | - | 697 W/m² | - |
| 1777908119 | 20° C | 41% | 1016.5 hPa | 0 mm | - | 691 W/m² | - |
| 1777907815 | 19.44° C | 41% | 1016.5 hPa | 0 mm | - | 684 W/m² | - |
| 1777907516 | 18.89° C | 43% | 1016.7 hPa | 0 mm | - | 668 W/m² | - |
| 1777907213 | 18.89° C | 43% | 1016.7 hPa | 0 mm | - | 600 W/m² | - |
| 1777906910 | 18.33° C | 43% | 1016.8 hPa | 0 mm | - | 575 W/m² | - |
| 1777906607 | 18.33° C | 45% | 1016.9 hPa | 0 mm | - | 481 W/m² | - |
| 1777906302 | 18.33° C | 45% | 1016.8 hPa | 0 mm | - | 212 W/m² | - |
| 1777905999 | 17.78° C | 49% | 1016.8 hPa | 0 mm | - | 124 W/m² | - |
| 1777905696 | 17.78° C | 50% | 1016.9 hPa | 0 mm | - | 113 W/m² | - |
| 1777905393 | 17.78° C | 48% | 1016.9 hPa | 0 mm | - | 317 W/m² | - |
| 1777905091 | 17.22° C | 52% | 1016.7 hPa | 0 mm | - | 55 W/m² | - |
| 1777904788 | 17.22° C | 51% | 1016.7 hPa | 0 mm | - | 114 W/m² | - |
| 1777904485 | 17.22° C | 53% | 1016.8 hPa | 0 mm | - | 70 W/m² | - |
| 1777904181 | 16.67° C | 52% | 1016.7 hPa | 0 mm | - | 53 W/m² | - |
| 1777903879 | 16.67° C | 55% | 1016.6 hPa | 0 mm | - | 203 W/m² | - |
* Rain latest hour (hover to see other rain measurements)
** Current wind speed in m/s (hover to see current wind gust speed)